Location: *
(41.0917°S, 98.1743°E)
Time: 00:54:52
(UTC+00:00)

Daily predictions for brighter satellites

Satellite Brightness Start Highest point End
(mag) Time Altitude Azimuth Time Altitude Azimuth Time Altitude Azimuth
Cosmos 2297 3.8 11:46:36 10° SSW 11:52:24 68° ESE 11:58:08 10° NNE
Helios 1A Rocket 4.1 11:51:09 10° SE 11:54:23 22° E 11:57:35 10° NNE
Cosmos 2278 Rocket 4.3 11:49:33 10° SW 11:54:31 31° WNW 11:59:27 10° NNW
